Weather History for EHAM - August, 2013

Change the Weather History Date:

Monday, August 12, 2013

  Actual Average Record
Temperature  
Mean Temperature 62 °F -  
Max Temperature 68 °F 67 °F 91 °F (2003)
Min Temperature 55 °F 53 °F 50 °F (1999)
Degree Days  
Heating Degree Days 4    
Growing Degree Days 12 (Base 50)    
Moisture  
Dew Point 53 °F    
Average Humidity 72    
Maximum Humidity 100    
Minimum Humidity 44    
Precipitation  
Precipitation 0.00 in - - ()
Sea Level Pressure  
Sea Level Pressure 29.96 in    
Wind  
Wind Speed 8 mph ()    
Max Wind Speed 18 mph    
Max Gust Speed -    
Visibility 6.0 miles    
Events Fog    
Averages and records for this station are not official NWS values.
T = Trace of Precipitation, MM = Missing Value Source: Averaged Metar Reports

Daily Weather History Graph

Daily Weather History Graph

Search for Another Location

Airport or City:

Trip Planner

Search our weather history database for the weather conditions in past years. The results will help you decide how hot, cold, wet, or windy it might be!

Date:

Astronomy

Aug. 12, 2013 Rise Set
Actual Time 6:19 AM CEST 9:11 PM CEST
Civil Twilight 5:39 AM CEST 9:50 PM CEST
Nautical Twilight 4:48 AM CEST 10:40 PM CEST
Astronomical Twilight 3:44 AM CEST 11:44 PM CEST
Moon 12:45 PM CEST (8/12) 10:59 PM CEST (8/12)
Length of Visible Light 16h 10m
Length of Day
14h 52m
Waxing Crescent, 28% of the Moon is Illuminated
Aug 12
Waxing Crescent
Aug 14
First Quarter
Aug 21
Full
Aug 28
Last Quarter
Sep 5
New

Hourly Weather History & Observations

Time (CEST) Temp. Dew Point Humidity Pressure Visibility Wind Dir Wind Speed Gust Speed Precip Events Conditions
12:25 AM 60.8 °F 59.0 °F 94% 29.98 in 6.2 mi SSW 6.9 mph - N/A   Partly Cloudy
12:55 AM 59.0 °F 57.2 °F 94% 29.98 in 6.2 mi SSW 5.8 mph - N/A   Partly Cloudy
1:25 AM 59.0 °F 57.2 °F 94% 29.98 in 6.2 mi SW 3.5 mph - N/A   Partly Cloudy
1:55 AM 59.0 °F 59.0 °F 100% 29.98 in 5.0 mi South 4.6 mph - N/A Fog Fog
2:00 AM 59 °F 58 °F 97% 29.99 in 6 mi South 2.2 mph - -   Mist
2:25 AM 59.0 °F 57.2 °F 94% 29.98 in 5.0 mi South 3.5 mph - N/A   Partly Cloudy
2:55 AM 59.0 °F 57.2 °F 94% 29.98 in 3.7 mi SSW 5.8 mph - N/A Fog Fog
3:25 AM 57.2 °F 57.2 °F 100% 29.95 in 3.1 mi SSW 5.8 mph - N/A Fog Shallow Fog
3:55 AM 55.4 °F 55.4 °F 100% 29.95 in 3.1 mi SW 6.9 mph - N/A Fog Fog
4:25 AM 59.0 °F 57.2 °F 94% 29.95 in 3.1 mi SW 6.9 mph - N/A Fog Fog
4:55 AM 59.0 °F 57.2 °F 94% 29.95 in 3.1 mi SW 8.1 mph - N/A Fog Fog
5:00 AM 59 °F 58 °F 95% 29.96 in 4 mi SW 6.7 mph - -   Mist
5:25 AM 59.0 °F 57.2 °F 94% 29.95 in 5.0 mi SSW 8.1 mph - N/A Fog Fog
5:55 AM 59.0 °F 57.2 °F 94% 29.95 in - SW 6.9 mph - N/A   Clear
6:25 AM 59.0 °F 55.4 °F 88% 29.95 in - West 5.8 mph - N/A   Clear
6:55 AM 60.8 °F 55.4 °F 82% 29.95 in - West 4.6 mph - N/A   Clear
7:25 AM 60.8 °F 55.4 °F 82% 29.95 in - West 3.5 mph - N/A   Clear
7:55 AM 60.8 °F 57.2 °F 88% 29.95 in - West 3.5 mph - N/A   Clear
8:00 AM 62 °F 57 °F 78% 29.97 in 28 mi WNW 2.2 mph - -   Partly Cloudy
8:25 AM 62.6 °F 55.4 °F 77% 29.95 in - West 4.6 mph - N/A   Clear
8:55 AM 62.6 °F 53.6 °F 72% 29.95 in - West 4.6 mph - N/A   Clear
9:25 AM 62.6 °F 53.6 °F 72% 29.98 in - West 5.8 mph - N/A   Clear
9:55 AM 62.6 °F 53.6 °F 72% 29.98 in 6.2 mi WSW 8.1 mph - N/A   Mostly Cloudy
10:25 AM 64.4 °F 51.8 °F 64% 29.98 in 6.2 mi WSW 9.2 mph - N/A   Mostly Cloudy
10:55 AM 64.4 °F 50.0 °F 59% 29.98 in 6.2 mi WSW 10.4 mph - N/A   Mostly Cloudy
11:00 AM 65 °F 51 °F 50% 29.98 in 22 mi West 11.2 mph - -   Partly Cloudy
11:25 AM 66.2 °F 50.0 °F 56% 29.98 in 6.2 mi West 12.7 mph - N/A   Mostly Cloudy
11:55 AM 66.2 °F 50.0 °F 56% 29.98 in 6.2 mi West 13.8 mph - N/A   Mostly Cloudy
12:25 PM 68.0 °F 50.0 °F 52% 29.98 in 6.2 mi West 13.8 mph - N/A   Mostly Cloudy
12:55 PM 68.0 °F 50.0 °F 52% 29.95 in 6.2 mi West 15.0 mph - N/A   Mostly Cloudy
1:25 PM 66.2 °F 50.0 °F 56% 29.95 in 6.2 mi West 17.3 mph - N/A   Partly Cloudy
1:55 PM 66.2 °F 50.0 °F 56% 29.95 in 6.2 mi West 17.3 mph - N/A   Partly Cloudy
2:00 PM 66 °F 51 °F 47% 29.98 in 22 mi West 17.9 mph - -   Partly Cloudy
2:25 PM 66.2 °F 51.8 °F 60% 29.98 in 6.2 mi West 16.1 mph - N/A   Partly Cloudy
2:55 PM 68.0 °F 51.8 °F 56% 29.95 in 6.2 mi West 16.1 mph - N/A   Partly Cloudy
3:25 PM 68.0 °F 51.8 °F 56% 29.95 in 6.2 mi West 17.3 mph - N/A   Partly Cloudy
3:55 PM 68.0 °F 53.6 °F 60% 29.95 in 6.2 mi West 16.1 mph - N/A   Partly Cloudy
4:25 PM 68.0 °F 51.8 °F 56% 29.95 in 6.2 mi West 15.0 mph - N/A   Partly Cloudy
4:55 PM 68.0 °F 51.8 °F 56% 29.95 in 6.2 mi West 13.8 mph - N/A   Partly Cloudy
5:00 PM 67 °F 50 °F 44% 29.96 in 19 mi West 13.4 mph - -   Scattered Clouds
5:25 PM 68.0 °F 50.0 °F 52% 29.95 in 6.2 mi WNW 13.8 mph - N/A   Partly Cloudy
5:55 PM 66.2 °F 50.0 °F 56% 29.95 in 6.2 mi West 13.8 mph - N/A   Partly Cloudy
6:25 PM 66.2 °F 48.2 °F 52% 29.95 in 6.2 mi West 15.0 mph - N/A   Partly Cloudy
6:55 PM 64.4 °F 48.2 °F 56% 29.95 in 6.2 mi West 13.8 mph - N/A   Partly Cloudy
7:25 PM 64.4 °F 48.2 °F 56% 29.95 in 6.2 mi West 12.7 mph - N/A   Partly Cloudy
7:55 PM 62.6 °F 48.2 °F 59% 29.95 in 6.2 mi West 12.7 mph - N/A   Partly Cloudy
8:00 PM 63 °F 49 °F 49% 29.96 in 25 mi West 11.2 mph - -   Partly Cloudy
8:25 PM 62.6 °F 50.0 °F 63% 29.95 in 6.2 mi West 10.4 mph - N/A   Partly Cloudy
8:55 PM 60.8 °F 51.8 °F 72% 29.95 in 6.2 mi West 9.2 mph - N/A   Partly Cloudy
9:25 PM 59.0 °F 51.8 °F 77% 29.95 in 6.2 mi West 6.9 mph - N/A   Partly Cloudy
9:55 PM 59.0 °F 51.8 °F 77% 29.95 in 6.2 mi WSW 6.9 mph - N/A   Partly Cloudy
10:25 PM 59.0 °F 51.8 °F 77% 29.95 in 6.2 mi WSW 6.9 mph - N/A   Partly Cloudy
10:55 PM 59.0 °F 51.8 °F 77% 29.95 in 6.2 mi SW 6.9 mph - N/A   Partly Cloudy
11:25 PM 57.2 °F 51.8 °F 82% 29.95 in 6.2 mi SW 6.9 mph - N/A   Partly Cloudy
11:55 PM 59.0 °F 53.6 °F 82% 29.95 in 6.2 mi SW 5.8 mph - N/A   Partly Cloudy